SCOUT X-4 DEB, 2088

Orbit data source: Space-Track

SCOUT X-4 DEB, 2088 is space debris in LEO originally from a launch on Fri, 19 Nov 1965 UTC launched from the Wallops Island (WLPIS). Debris objects in space refer to the collection of defunct objects orbiting the Earth. Examples of debris include non-operational satellites, rocket bodies, and fragments generated from explosions, collisions, or faulty payload assembly.

Loading next visibility...
Identifier
2088, 1965-093D
Orbit
LEO
Country
Flag of USUS
Related business
Manufacturer
Unknown
Mission
Spacecraft
Bus & Motor
Unknown
Mass
Unknown
Launch date (UTC)
1965-11-19 (61 years ago)
Launch vehicle
Unknown
Launch site
Wallops Island (WLPIS)
Object type
Payload
Rocket body
Debris
Shape & HBR
Unknown shape, 0.1 m
Radar Cross Section
Medium (>0.1 m² and <1 m²)

Expand to show TLE details & history
Last TLE update: 18 hours ago

TLE from 18 hours ago
0 SCOUT X-4 DEB
1 02088U 65093D   26253.32816911  .00000534  00000-0  13315-3 0  9998
2 02088  59.7131 251.1167 0082238 138.1635 222.5738 14.62513962166358
Epoch: 2026-09-10T07:52Z
TLE epoch observation values (Epoch: 2026-09-10T07:52:33.811Z)
Latitude
-0.00003°
Longitude
143.60835°
Altitude
729.591 km
Speed
7.468 km/s
True Right ascension
16h 44m 28s
True Declination
0° 00' 00"
Sunlit
Object was in daylight at epoch
Visualization orbit readout
Latitude
Unknown
Longitude
Unknown
Altitude
Unknown
Speed
Unknown
Apparent Right ascension
Unknown
Apparent Declination
Unknown
Sunlit
N/A
Visualization observer readout
Local Sidereal Time
18:05:40
Azimuth
Unknown
Elevation
Unknown
Doppler factor
Unknown
Orbital elements
Apogee altitude
742.414 km
Perigee altitude
626.253 km
Semi-major axis
7,062.471 km
Eccentricity
0.00822
Inclination
59.7131°
RAAN
251.1167°
Arg. of periapsis
138.1635°
True anomaly
221.94105°
Mean anomaly
222.5738°
Eccentric anomaly
222.25695°
Mean motion
3.65686 °/min
Orbital period
98.45 mins
BSTAR
0.00013315
Loading maneuver chart data...
Computing Atmospheric mass density...
Loading historical data...
Loading historical data...
Loading historical data...
Loading historical data...
Loading historical data...
Loading historical data...
Loading historical data...
Other satellites on launch #93 in the year 1965 (1965-11-19 UTC)

Documentation

Showing up to 5 results
|